• Join FlightAware (Why Join?)
  • Login
  • US Flag 
07:04PM EST


 

Airport Tracker/Info


-or-


 

Live Flight TrackerFlight Track Log ✈ N382DJ ✈ 16-Jun-2013 ✈ TFFA / DSD - KUAO

Flight Track Log - Related Links

Times and Time Zones

All times are in EDT time to prevent confusion due to time zone crossing. See the N382DJ flight status page for this flight to view local times or setup timezone preferences in your user account.

Time Position Orientation Groundspeed Altitude Reporting Facility
EDT Latitude Longitude Course Direction KTS MPH feet Rate Location/Type
08:46PM 44.1714 -121.2708 316° Northwest 130 150 5,600  Level Seattle Center
08:47PM 44.2019 -121.3117 316° Northwest 142 163 6,400 639 Climbing Seattle Center
08:48PM 44.2292 -121.3594 309° West 152 175 6,900 492 Climbing Seattle Center
08:49PM 44.2647 -121.4028 319° Northwest 165 190 7,400 744 Climbing Seattle Center
08:50PM 44.2728 -121.4544 282° West 152 175 8,400 893 Climbing Seattle Center
08:51PM 44.2789 -121.5111 279° West 148 170 9,200 787 Climbing Seattle Center
08:52PM 44.2869 -121.5689 281° West 152 175 10,000 393 Climbing Seattle Center
08:53PM 44.2961 -121.6339 281° West 169 194 10,000  Level Seattle Center
08:54PM 44.3061 -121.7061 281° West 188 216 10,000  Level Seattle Center
08:55PM 44.3164 -121.7822 281° West 197 227 10,000  Level Seattle Center
08:56PM 44.3250 -121.8508 280° West 183 211 10,000  Level Seattle Center
08:57PM 44.3333 -121.9186 280° West 177 204 10,000  Level Seattle Center
08:58PM 44.3428 -121.9856 281° West 175 201 10,000  Level Seattle Center
08:59PM 44.3506 -122.0522 279° West 176 203 10,000  Level Seattle Center
09:00PM 44.3600 -122.1192 281° West 174 200 10,000  Level Seattle Center
09:01PM 44.3708 -122.1994 281° West 176 203 10,000  Level Seattle Center
09:02PM 44.3781 -122.2664 279° West 174 200 10,000  Level Seattle Center
09:03PM 44.3867 -122.3344 280° West 176 203 10,000 -49 Level Seattle Center
09:04PM 44.4050 -122.3964 293° West 181 208 9,900 -347 Descending Seattle Center
09:05PM 44.4439 -122.4547 313° West 200 230 9,300 -694 Descending Seattle Center
09:06PM 44.4822 -122.5169 311° West 209 241 8,500 -885 Descending Seattle Center
09:07PM 44.5175 -122.5708 313° West 195 224 7,500 -738 Descending Seattle Center
09:08PM 44.5467 -122.6211 309° West 174 200 7,000 -246 Descending Seattle Center
09:09PM 44.5750 -122.6672 311° West 157 181 7,000 -49 Level Seattle Center
09:10PM 44.6039 -122.7153 310° West 158 182 6,900 -98 Descending Seattle Center
09:11PM 44.6347 -122.7631 312° West 164 189 6,800 -639 Descending Seattle Center
09:12PM 44.6689 -122.8042 319° Northwest 175 201 5,600 -1,377 Descending Seattle Center
09:13PM 44.7094 -122.8389 329° Northwest 173 199 4,000 -1,328 Descending Seattle Center
09:14PM 44.7478 -122.8700 330° Northwest 165 190 2,900 -836 Descending Seattle Center
09:15PM 44.7833 -122.8986 330° Northwest 153 176 2,300 -393 Descending Seattle Center
09:16PM 44.8217 -122.9292 331° Northwest 144 166 2,100 -443 Descending Seattle Center
09:17PM 44.8497 -122.9525 329° Northwest 121 139 1,400 -639 Descending Seattle Center
09:18PM 44.8764 -122.9736 331° Northwest 113 130 800 -393 Descending Seattle Center
09:19PM 44.9036 -122.9964 329° Northwest 113 130 600 492 Descending Seattle Center
09:20PM 44.9331 -123.0194 331° Northwest 118 136 1,800 1,230 Climbing Seattle Center
09:21PM 44.9614 -123.0431 329° Northwest 118 136 3,100 1,190 Climbing Seattle Center
09:22PM 44.9922 -123.0686 330° Northwest 125 144 4,200 893 Climbing Seattle Center
09:23PM 45.0203 -123.1050 317° Northwest 136 157 4,900 344 Climbing Seattle Center
09:24PM 45.0517 -123.1547 312° West 163 188 4,900  Level Seattle Center
09:25PM 45.0656 -123.1097 66° East 166 191 4,900  Level Seattle Center
09:26PM 45.0200 -123.0917 164° South 167 192 4,900  Level Seattle Center
09:27PM 44.9786 -123.0814 170° South 166 191 4,900  Level Seattle Center
09:28PM 45.0011 -123.1322 302° West 176 203 4,900  Level Seattle Center
09:29PM 45.0353 -123.1597 330° Northwest 178 205 4,900  Level Seattle Center
09:30PM 45.0519 -123.1719 333° Northwest 175 201 4,900 78 Level Seattle Center
09:31PM 45.0678 -123.1119 69° East 178 205 5,000  Climbing Seattle Center
09:32PM 45.0603 -123.0442 99° East 176 203 4,900 -49 Descending Seattle Center
09:33PM 45.0406 -122.9803 114° Southeast 175 201 4,900 -197 Level Seattle Center
09:34PM 45.0214 -122.9214 115° Southeast 170 196 4,500 -393 Descending Seattle Center